,,,PA_Meas_PMT16A,,PR_Meas_QMR101_102,,RH_Meas_QMH101,,SR_Meas_QMS101,,TA_Meas_QMH101,,GenWind,,GenWind,
date,time,status,PA,status,PR,status,RH,status,SR,status,TA,status,DirAvg,status,SpdAvg,
2011-04-23, 00:00:04,VALID,1008.93,VALID,0,VALID,104,VALID,0,VALID,23.3238,VALID,75,VALID,0,
2011-04-23, 00:01:04,VALID,1008.89,VALID,0,VALID,104,VALID,0,VALID,23.3238,VALID,75,VALID,0,
2011-04-23, 00:02:04,VALID,1008.85,VALID,0,VALID,104,VALID,0,VALID,23.3238,VALID,75,VALID,0,
2011-04-23, 00:03:04,VALID,1008.81,VALID,0,VALID,104,VALID,0,VALID,23.3451,VALID,75,VALID,0,
2011-04-23, 00:04:04,VALID,1008.8,VALID,0,VALID,104,VALID,0,VALID,23.3238,VALID,75,VALID,0,
2011-04-23, 00:05:04,VALID,1008.78,VALID,0,VALID,104,VALID,0,VALID,23.3238,VALID,75,VALID,0,
2011-04-23, 00:06:04,VALID,1008.73,VALID,0,VALID,104,VALID,0,VALID,23.3238,VALID,75,VALID,0,
2011-04-23, 00:07:04,VALID,1008.71,VALID,0,VALID,104,VALID,0,VALID,23.3628,VALID,75,VALID,0,
2011-04-23, 00:08:04,VALID,1008.68,VALID,0,VALID,104,VALID,0,VALID,23.3628,VALID,75,VALID,0,
2011-04-23, 00:09:04,VALID,1008.61,VALID,0,VALID,104,VALID,0,VALID,23.3823,VALID,75,VALID,0,
2011-04-23, 00:10:04,VALID,1008.61,VALID,0,VALID,104,VALID,0,VALID,23.3823,VALID,75,VALID,0,
2011-04-23, 00:11:04,VALID,1008.58,VALID,0,VALID,104,VALID,0,VALID,23.3823,VALID,75,VALID,0,
2011-04-23, 00:12:04,VALID,1008.54,VALID,0,VALID,104,VALID,0,VALID,23.361,VALID,75,VALID,0,
2011-04-23, 00:13:04,VALID,1008.52,VALID,0,VALID,104,VALID,0,VALID,23.3823,VALID,75,VALID,0,
2011-04-23, 00:14:04,VALID,1008.53,VALID,0,VALID,104,VALID,0,VALID,23.3823,VALID,75,VALID,0.164453,
2011-04-23, 00:15:04,VALID,1008.53,VALID,0,VALID,104,VALID,0,VALID,23.3823,VALID,75,VALID,0,
2011-04-23, 00:16:04,VALID,1008.5,VALID,0,VALID,104,VALID,0,VALID,23.3628,VALID,75,VALID,0,
2011-04-23, 00:17:04,VALID,1008.48,VALID,0,VALID,104,VALID,0,VALID,23.3433,VALID,75,VALID,0,
2011-04-23, 00:18:04,VALID,1008.47,VALID,0,VALID,104,VALID,0,VALID,23.3433,VALID,75,VALID,0,
2011-04-23, 00:19:04,VALID,1008.43,VALID,0,VALID,104,VALID,0,VALID,23.3433,VALID,75,VALID,0,
2011-04-23, 00:20:04,VALID,1008.37,VALID,0,VALID,104,VALID,0,VALID,23.3433,VALID,75,VALID,0,
2011-04-23, 00:21:04,VALID,1008.37,VALID,0,VALID,104,VALID,0,VALID,23.3238,VALID,75,VALID,0,
2011-04-23, 00:22:04,VALID,1008.3,VALID,0,VALID,104,VALID,0,VALID,23.3238,VALID,75,VALID,0,
2011-04-23, 00:23:04,VALID,1008.3,VALID,0,VALID,104,VALID,0,VALID,23.3238,VALID,75,VALID,0,
2011-04-23, 00:24:04,VALID,1008.26,VALID,0,VALID,104,VALID,0,VALID,23.2831,VALID,75,VALID,0.137109,
2011-04-23, 00:25:04,VALID,1008.26,VALID,0,VALID,104,VALID,0,VALID,23.3238,VALID,75,VALID,0,
2011-04-23, 00:26:04,VALID,1008.21,VALID,0,VALID,104,VALID,0,VALID,23.3238,VALID,75,VALID,0,
2011-04-23, 00:27:04,VALID,1008.22,VALID,0,VALID,104,VALID,0,VALID,23.3238,VALID,75,VALID,0.614062,
2011-04-23, 00:28:04,VALID,1008.21,VALID,0,VALID,104,VALID,0,VALID,23.3433,VALID,75,VALID,0.0535156,
2011-04-23, 00:29:04,VALID,1008.19,VALID,0,VALID,104,VALID,0,VALID,23.3433,VALID,75,VALID,0.0230469,
2011-04-23, 00:30:04,VALID,1008.2,VALID,0,VALID,104,VALID,0,VALID,23.3238,VALID,75,VALID,0,
2011-04-23, 00:31:04,VALID,1008.2,VALID,0,VALID,104,VALID,0,VALID,23.3043,VALID,75,VALID,0,
2011-04-23, 00:32:04,VALID,1008.19,VALID,0,VALID,104,VALID,0,VALID,23.2848,VALID,75,VALID,0,
2011-04-23, 00:33:04,VALID,1008.17,VALID,0,VALID,104,VALID,0,VALID,23.2848,VALID,75,VALID,0,
2011-04-23, 00:34:04,VALID,1008.15,VALID,0,VALID,104,VALID,0,VALID,23.2848,VALID,75,VALID,0,
2011-04-23, 00:35:04,VALID,1008.1,VALID,0,VALID,104,VALID,0,VALID,23.2848,VALID,75,VALID,0,
2011-04-23, 00:36:04,VALID,1008.05,VALID,0,VALID,104,VALID,0,VALID,23.2848,VALID,75,VALID,0,
2011-04-23, 00:37:04,VALID,1008.04,VALID,0,VALID,104,VALID,0,VALID,23.2848,VALID,75,VALID,0,
2011-04-23, 00:38:04,VALID,1008,VALID,0,VALID,104,VALID,0,VALID,23.2848,VALID,75,VALID,0,
2011-04-23, 00:39:04,VALID,1007.96,VALID,0,VALID,104,VALID,0,VALID,23.2848,VALID,75,VALID,0,
2011-04-23, 00:40:04,VALID,1007.95,VALID,0,VALID,104,VALID,0,VALID,23.2848,VALID,75,VALID,0,
2011-04-23, 00:41:04,VALID,1007.95,VALID,0,VALID,104,VALID,0,VALID,23.2636,VALID,75,VALID,0,
2011-04-23, 00:42:05,VALID,1007.94,VALID,0,VALID,104,VALID,0,VALID,23.2654,VALID,75,VALID,0,
2011-04-23, 00:43:05,VALID,1007.94,VALID,0,VALID,104,VALID,0,VALID,23.2441,VALID,75,VALID,0,
2011-04-23, 00:44:05,VALID,1007.9,VALID,0,VALID,104,VALID,0,VALID,23.2459,VALID,75,VALID,0,
2011-04-23, 00:45:05,VALID,1007.91,VALID,0,VALID,104,VALID,0,VALID,23.2654,VALID,75,VALID,0,
2011-04-23, 00:46:05,VALID,1007.88,VALID,0,VALID,104,VALID,0.105969,VALID,23.2654,VALID,75,VALID,0,
2011-04-23, 00:47:05,VALID,1007.86,VALID,0,VALID,104,VALID,0.105969,VALID,23.2636,VALID,75,VALID,0,
2011-04-23, 00:48:05,VALID,1007.84,VALID,0,VALID,104,VALID,0.105969,VALID,23.2441,VALID,75,VALID,0,
2011-04-23, 00:49:05,VALID,1007.87,VALID,0,VALID,104,VALID,0,VALID,23.2441,VALID,75,VALID,0,
2011-04-23, 00:50:05,VALID,1007.86,VALID,0,VALID,104,VALID,0.105969,VALID,23.2246,VALID,75,VALID,0,
2011-04-23, 00:51:05,VALID,1007.87,VALID,0,VALID,104,VALID,0.105969,VALID,23.2051,VALID,75,VALID,0,
2011-04-23, 00:52:05,VALID,1007.86,VALID,0,VALID,104,VALID,0,VALID,23.2069,VALID,75,VALID,0,
2011-04-23, 00:53:05,VALID,1007.88,VALID,0,VALID,104,VALID,0.105969,VALID,23.2051,VALID,75,VALID,0,
2011-04-23, 00:54:05,VALID,1007.87,VALID,0,VALID,104,VALID,0.105969,VALID,23.1857,VALID,75,VALID,0,
2011-04-23, 00:55:05,VALID,1007.87,VALID,0,VALID,104,VALID,0,VALID,23.2051,VALID,75,VALID,0,
2011-04-23, 00:56:05,VALID,1007.87,VALID,0,VALID,104,VALID,0,VALID,23.2246,VALID,75,VALID,0,
2011-04-23, 00:57:05,VALID,1007.85,VALID,0,VALID,104,VALID,0.105969,VALID,23.2459,VALID,75,VALID,0,
2011-04-23, 00:58:05,VALID,1007.87,VALID,0,VALID,104,VALID,0.105969,VALID,23.2246,VALID,75,VALID,0,
2011-04-23, 00:59:05,VALID,1007.86,VALID,0,VALID,104,VALID,0,VALID,23.2051,VALID,75,VALID,0,
2011-04-23, 01:00:05,VALID,1007.88,VALID,0,VALID,104,VALID,0.105969,VALID,23.2051,VALID,75,VALID,0,
2011-04-23, 01:01:05,VALID,1007.88,VALID,0,VALID,104,VALID,0.105969,VALID,23.1857,VALID,75,VALID,0,
2011-04-23, 01:02:05,VALID,1007.91,VALID,0,VALID,104,VALID,0.105969,VALID,23.1662,VALID,75,VALID,0,
2011-04-23, 01:03:05,VALID,1007.87,VALID,0,VALID,104,VALID,0,VALID,23.1662,VALID,75,VALID,0,
2011-04-23, 01:04:05,VALID,1007.86,VALID,0,VALID,104,VALID,0,VALID,23.1874,VALID,75,VALID,0,
2011-04-23, 01:05:05,VALID,1007.88,VALID,0,VALID,104,VALID,0.105969,VALID,23.1662,VALID,75,VALID,0,
2011-04-23, 01:06:05,VALID,1007.83,VALID,0,VALID,104,VALID,0.105969,VALID,23.1662,VALID,75,VALID,0,
2011-04-23, 01:07:05,VALID,1007.82,VALID,0,VALID,104,VALID,0.105969,VALID,23.1857,VALID,75,VALID,0,
2011-04-23, 01:08:05,VALID,1007.81,VALID,0,VALID,104,VALID,0.105969,VALID,23.1857,VALID,75,VALID,0,
2011-04-23, 01:09:05,VALID,1007.79,VALID,0,VALID,104,VALID,0.105969,VALID,23.2051,VALID,75,VALID,0,
2011-04-23, 01:10:05,VALID,1007.81,VALID,0,VALID,104,VALID,0,VALID,23.2459,VALID,75,VALID,0,
2011-04-23, 01:11:05,VALID,1007.8,VALID,0,VALID,104,VALID,0,VALID,23.2246,VALID,75,VALID,0,
2011-04-23, 01:12:05,VALID,1007.79,VALID,0,VALID,104,VALID,0.105969,VALID,23.2264,VALID,75,VALID,0,
2011-04-23, 01:13:05,VALID,1007.85,VALID,0,VALID,104,VALID,0,VALID,23.2459,VALID,75,VALID,0,
2011-04-23, 01:14:05,VALID,1007.83,VALID,0,VALID,104,VALID,0.105969,VALID,23.2441,VALID,75,VALID,0,
2011-04-23, 01:15:05,VALID,1007.83,VALID,0,VALID,104,VALID,0,VALID,23.2654,VALID,75,VALID,0,
2011-04-23, 01:16:05,VALID,1007.83,VALID,0,VALID,104,VALID,0,VALID,23.2831,VALID,75,VALID,0,
2011-04-23, 01:17:05,VALID,1007.82,VALID,0,VALID,104,VALID,0.105969,VALID,23.2831,VALID,75,VALID,0,
2011-04-23, 01:18:05,VALID,1007.83,VALID,0,VALID,104,VALID,0.105969,VALID,23.2831,VALID,75,VALID,0,
2011-04-23, 01:19:05,VALID,1007.81,VALID,0,VALID,104,VALID,0,VALID,23.3043,VALID,75,VALID,0,
2011-04-23, 01:20:05,VALID,1007.8,VALID,0,VALID,104,VALID,0,VALID,23.3238,VALID,75,VALID,0,
2011-04-23, 01:21:05,VALID,1007.82,VALID,0,VALID,104,VALID,0,VALID,23.3026,VALID,75,VALID,0,
2011-04-23, 01:22:05,VALID,1007.82,VALID,0,VALID,104,VALID,0.105969,VALID,23.322,VALID,75,VALID,0,
2011-04-23, 01:23:05,VALID,1007.81,VALID,0,VALID,104,VALID,0.105969,VALID,23.361,VALID,75,VALID,0.0527344,
2011-04-23, 01:24:05,VALID,1007.84,VALID,0,VALID,104,VALID,0.105969,VALID,23.361,VALID,75,VALID,0,
2011-04-23, 01:25:05,VALID,1007.84,VALID,0,VALID,104,VALID,0,VALID,23.4017,VALID,75,VALID,0,
2011-04-23, 01:26:05,VALID,1007.85,VALID,0,VALID,104,VALID,0,VALID,23.4017,VALID,75,VALID,0,
2011-04-23, 01:27:05,VALID,1007.86,VALID,0,VALID,104,VALID,0,VALID,23.3823,VALID,75,VALID,0,
2011-04-23, 01:28:05,VALID,1007.83,VALID,0,VALID,104,VALID,0,VALID,23.361,VALID,75,VALID,0,
2011-04-23, 01:29:05,VALID,1007.81,VALID,0,VALID,104,VALID,0,VALID,23.3805,VALID,75,VALID,0,
2011-04-23, 01:30:05,VALID,1007.8,VALID,0,VALID,104,VALID,0,VALID,23.4212,VALID,75,VALID,0,
2011-04-23, 01:31:05,VALID,1007.77,VALID,0,VALID,104,VALID,0,VALID,23.4017,VALID,75,VALID,0,
2011-04-23, 01:32:05,VALID,1007.76,VALID,0,VALID,104,VALID,0,VALID,23.4017,VALID,75,VALID,0,
2011-04-23, 01:33:05,VALID,1007.76,VALID,0,VALID,104,VALID,0,VALID,23.4,VALID,75,VALID,0,
2011-04-23, 01:34:05,VALID,1007.73,VALID,0,VALID,104,VALID,0,VALID,23.4,VALID,75,VALID,0,
2011-04-23, 01:35:05,VALID,1007.72,VALID,0,VALID,104,VALID,0,VALID,23.4407,VALID,75,VALID,0,
2011-04-23, 01:36:05,VALID,1007.73,VALID,0,VALID,104,VALID,0.105969,VALID,23.4407,VALID,75,VALID,0.217578,
2011-04-23, 01:37:05,VALID,1007.72,VALID,0,VALID,104,VALID,0,VALID,23.4389,VALID,75,VALID,0.201953,
2011-04-23, 01:38:05,VALID,1007.73,VALID,0,VALID,104,VALID,0.105969,VALID,23.4797,VALID,75,VALID,0.15625,
2011-04-23, 01:39:05,VALID,1007.76,VALID,0,VALID,104,VALID,0,VALID,23.4584,VALID,75,VALID,0.0078125,
2011-04-23, 01:40:05,VALID,1007.74,VALID,0,VALID,104,VALID,0.105969,VALID,23.4584,VALID,75,VALID,0,
2011-04-23, 01:41:05,VALID,1007.77,VALID,0,VALID,104,VALID,0,VALID,23.4797,VALID,75,VALID,0.0015625,
2011-04-23, 01:42:05,VALID,1007.76,VALID,0,VALID,104,VALID,0,VALID,23.4797,VALID,75,VALID,0.377344,
2011-04-23, 01:43:05,VALID,1007.76,VALID,0,VALID,104,VALID,0,VALID,23.4797,VALID,75,VALID,0.512109,
2011-04-23, 01:44:05,VALID,1007.77,VALID,0,VALID,104,VALID,0,VALID,23.4797,VALID,75,VALID,0.457031,
2011-04-23, 01:45:05,VALID,1007.79,VALID,0,VALID,104,VALID,0,VALID,23.4797,VALID,75,VALID,0.549609,
2011-04-23, 01:46:05,VALID,1007.77,VALID,0,VALID,104,VALID,0,VALID,23.4779,VALID,75,VALID,0.471094,
2011-04-23, 01:47:05,VALID,1007.75,VALID,0,VALID,104,VALID,0,VALID,23.4797,VALID,75,VALID,0.214062,
2011-04-23, 01:48:05,VALID,1007.79,VALID,0,VALID,104,VALID,0,VALID,23.4797,VALID,75,VALID,0.233203,
2011-04-23, 01:49:05,VALID,1007.76,VALID,0,VALID,104,VALID,0.105969,VALID,23.4584,VALID,75,VALID,0.322266,
2011-04-23, 01:50:05,VALID,1007.77,VALID,0,VALID,104,VALID,0.105969,VALID,23.4584,VALID,75,VALID,0.178906,
2011-04-23, 01:51:05,VALID,1007.79,VALID,0,VALID,104,VALID,0,VALID,23.4389,VALID,75,VALID,0.261719,
2011-04-23, 01:52:05,VALID,1007.8,VALID,0,VALID,104,VALID,0.105969,VALID,23.4584,VALID,75,VALID,0.333984,
2011-04-23, 01:53:05,VALID,1007.83,VALID,0,VALID,104,VALID,0,VALID,23.4602,VALID,75,VALID,0.460938,
2011-04-23, 01:54:05,VALID,1007.84,VALID,0,VALID,104,VALID,0.105969,VALID,23.4584,VALID,75,VALID,0.14375,
2011-04-23, 01:55:05,VALID,1007.83,VALID,0,VALID,104,VALID,0,VALID,23.4797,VALID,75,VALID,0.255078,
2011-04-23, 01:56:05,VALID,1007.85,VALID,0,VALID,104,VALID,0,VALID,23.4389,VALID,75,VALID,0.378516,
2011-04-23, 01:57:05,VALID,1007.82,VALID,0,VALID,104,VALID,0,VALID,23.4602,VALID,75,VALID,0.223047,
2011-04-23, 01:58:05,VALID,1007.82,VALID,0,VALID,104,VALID,0,VALID,23.4407,VALID,75,VALID,0.386328,
2011-04-23, 01:59:05,VALID,1007.8,VALID,0,VALID,104,VALID,0,VALID,23.4602,VALID,75,VALID,0.740234,
2011-04-23, 02:00:05,VALID,1007.77,VALID,0,VALID,104,VALID,0,VALID,23.4407,VALID,75,VALID,0.358203,
2011-04-23, 02:01:05,VALID,1007.75,VALID,0,VALID,104,VALID,0,VALID,23.4407,VALID,76,VALID,0.303516,
2011-04-23, 02:02:05,VALID,1007.74,VALID,0,VALID,104,VALID,0,VALID,23.4212,VALID,76,VALID,0.184766,
2011-04-23, 02:03:05,VALID,1007.74,VALID,0,VALID,104,VALID,0,VALID,23.4,VALID,76,VALID,0.126172,
2011-04-23, 02:04:05,VALID,1007.73,VALID,0,VALID,104,VALID,0,VALID,23.3805,VALID,76,VALID,0,
2011-04-23, 02:05:05,VALID,1007.72,VALID,0,VALID,104,VALID,0,VALID,23.361,VALID,76,VALID,0.0046875,
2011-04-23, 02:06:05,VALID,1007.71,VALID,0,VALID,104,VALID,0,VALID,23.3628,VALID,76,VALID,0,
2011-04-23, 02:07:05,VALID,1007.7,VALID,0,VALID,104,VALID,0,VALID,23.3433,VALID,76,VALID,0,
2011-04-23, 02:08:05,VALID,1007.67,VALID,0,VALID,104,VALID,0,VALID,23.3238,VALID,76,VALID,0,
2011-04-23, 02:09:05,VALID,1007.67,VALID,0,VALID,104,VALID,0.105969,VALID,23.2831,VALID,76,VALID,0,
2011-04-23, 02:10:05,VALID,1007.66,VALID,0,VALID,104,VALID,0,VALID,23.2848,VALID,76,VALID,0.0902344,
2011-04-23, 02:11:05,VALID,1007.62,VALID,0,VALID,104,VALID,0.105969,VALID,23.2654,VALID,76,VALID,0,
2011-04-23, 02:12:05,VALID,1007.6,VALID,0,VALID,104,VALID,0,VALID,23.2654,VALID,76,VALID,0,
2011-04-23, 02:13:05,VALID,1007.62,VALID,0,VALID,104,VALID,0,VALID,23.2246,VALID,76,VALID,0,
2011-04-23, 02:14:05,VALID,1007.56,VALID,0,VALID,104,VALID,0,VALID,23.2459,VALID,76,VALID,0,
2011-04-23, 02:15:05,VALID,1007.56,VALID,0,VALID,104,VALID,0,VALID,23.2246,VALID,76,VALID,0,
2011-04-23, 02:16:05,VALID,1007.55,VALID,0,VALID,104,VALID,0,VALID,23.2051,VALID,76,VALID,0.126953,
2011-04-23, 02:17:05,VALID,1007.51,VALID,0,VALID,104,VALID,0,VALID,23.2264,VALID,76,VALID,0,
2011-04-23, 02:18:05,VALID,1007.51,VALID,0,VALID,104,VALID,0,VALID,23.2264,VALID,76,VALID,0,
2011-04-23, 02:19:05,VALID,1007.47,VALID,0,VALID,104,VALID,0,VALID,23.1857,VALID,76,VALID,0,
2011-04-23, 02:20:05,VALID,1007.43,VALID,0,VALID,104,VALID,0,VALID,23.1857,VALID,76,VALID,0,
2011-04-23, 02:21:05,VALID,1007.46,VALID,0,VALID,104,VALID,0.105969,VALID,23.1662,VALID,76,VALID,0,
2011-04-23, 02:22:05,VALID,1007.46,VALID,0,VALID,104,VALID,0,VALID,23.1467,VALID,76,VALID,0,
2011-04-23, 02:23:05,VALID,1007.44,VALID,0,VALID,104,VALID,0,VALID,23.1485,VALID,76,VALID,0,
2011-04-23, 02:24:05,VALID,1007.44,VALID,0,VALID,104,VALID,0,VALID,23.129,VALID,76,VALID,0,
2011-04-23, 02:25:05,VALID,1007.46,VALID,0,VALID,104,VALID,0,VALID,23.129,VALID,76,VALID,0,
2011-04-23, 02:26:05,VALID,1007.45,VALID,0,VALID,104,VALID,0,VALID,23.1095,VALID,76,VALID,0,
2011-04-23, 02:27:05,VALID,1007.44,VALID,0,VALID,104,VALID,0,VALID,23.09,VALID,76,VALID,0,
2011-04-23, 02:28:05,VALID,1007.46,VALID,0,VALID,104,VALID,0,VALID,23.09,VALID,76,VALID,0,
2011-04-23, 02:29:05,VALID,1007.46,VALID,0,VALID,104,VALID,0,VALID,23.09,VALID,76,VALID,0,
2011-04-23, 02:30:05,VALID,1007.45,VALID,0,VALID,104,VALID,0,VALID,23.09,VALID,76,VALID,0,
2011-04-23, 02:31:05,VALID,1007.44,VALID,0,VALID,104,VALID,0,VALID,23.09,VALID,76,VALID,0,
2011-04-23, 02:32:05,VALID,1007.44,VALID,0,VALID,104,VALID,0,VALID,23.0688,VALID,76,VALID,0,
2011-04-23, 02:33:05,VALID,1007.44,VALID,0,VALID,104,VALID,0,VALID,23.09,VALID,76,VALID,0,
2011-04-23, 02:34:05,VALID,1007.45,VALID,0,VALID,104,VALID,0,VALID,23.0688,VALID,76,VALID,0,
2011-04-23, 02:35:05,VALID,1007.42,VALID,0,VALID,104,VALID,0,VALID,23.0705,VALID,76,VALID,0,
2011-04-23, 02:36:05,VALID,1007.44,VALID,0,VALID,104,VALID,0,VALID,23.09,VALID,76,VALID,0,
2011-04-23, 02:37:05,VALID,1007.45,VALID,0,VALID,104,VALID,0,VALID,23.0705,VALID,76,VALID,0,
2011-04-23, 02:38:05,VALID,1007.44,VALID,0,VALID,104,VALID,0,VALID,23.0705,VALID,76,VALID,0,
2011-04-23, 02:39:05,VALID,1007.45,VALID,0,VALID,104,VALID,0,VALID,23.0298,VALID,76,VALID,0,
2011-04-23, 02:40:05,VALID,1007.45,VALID,0,VALID,104,VALID,0,VALID,23.0316,VALID,76,VALID,0,
2011-04-23, 02:41:05,VALID,1007.43,VALID,0,VALID,104,VALID,0,VALID,22.9909,VALID,76,VALID,0,
2011-04-23, 02:42:05,VALID,1007.44,VALID,0,VALID,104,VALID,0,VALID,23.0121,VALID,76,VALID,0,
2011-04-23, 02:43:05,VALID,1007.41,VALID,0,VALID,104,VALID,0,VALID,22.9909,VALID,76,VALID,0,
2011-04-23, 02:44:05,VALID,1007.45,VALID,0,VALID,104,VALID,0,VALID,22.9909,VALID,76,VALID,0,
2011-04-23, 02:45:05,VALID,1007.39,VALID,0,VALID,104,VALID,0,VALID,23.0316,VALID,76,VALID,0,
2011-04-23, 02:46:05,VALID,1007.37,VALID,0,VALID,104,VALID,0,VALID,23.0316,VALID,76,VALID,0,
2011-04-23, 02:47:05,VALID,1007.38,VALID,0,VALID,104,VALID,0,VALID,23.0316,VALID,76,VALID,0.516016,
2011-04-23, 02:48:05,VALID,1007.37,VALID,0,VALID,104,VALID,0,VALID,23.0511,VALID,76,VALID,0,
2011-04-23, 02:49:05,VALID,1007.36,VALID,0,VALID,104,VALID,0,VALID,23.0316,VALID,76,VALID,0,
2011-04-23, 02:50:05,VALID,1007.36,VALID,0,VALID,104,VALID,0,VALID,23.0316,VALID,76,VALID,0,
2011-04-23, 02:51:05,VALID,1007.36,VALID,0,VALID,104,VALID,0,VALID,23.0121,VALID,76,VALID,0,
2011-04-23, 02:52:05,VALID,1007.33,VALID,0,VALID,104,VALID,0,VALID,22.9926,VALID,76,VALID,0,
2011-04-23, 02:53:05,VALID,1007.34,VALID,0,VALID,104,VALID,0,VALID,22.9926,VALID,76,VALID,0,
2011-04-23, 02:54:05,VALID,1007.34,VALID,0,VALID,104,VALID,0,VALID,22.9926,VALID,76,VALID,0,
2011-04-23, 02:55:05,VALID,1007.31,VALID,0,VALID,104,VALID,0,VALID,22.9714,VALID,76,VALID,0,
2011-04-23, 02:56:05,VALID,1007.28,VALID,0,VALID,104,VALID,0,VALID,23.0121,VALID,76,VALID,0,
2011-04-23, 02:57:05,VALID,1007.28,VALID,0,VALID,104,VALID,0,VALID,23.0316,VALID,76,VALID,0,
2011-04-23, 02:58:05,VALID,1007.27,VALID,0,VALID,104,VALID,0,VALID,23.0511,VALID,76,VALID,0,
2011-04-23, 02:59:05,VALID,1007.26,VALID,0,VALID,104,VALID,0,VALID,23.0511,VALID,76,VALID,0.00351562,
2011-04-23, 03:00:05,VALID,1007.26,VALID,0,VALID,104,VALID,0,VALID,23.09,VALID,76,VALID,0.668359,
2011-04-23, 03:01:05,VALID,1007.25,VALID,0,VALID,104,VALID,0,VALID,23.129,VALID,76,VALID,0.412891,
2011-04-23, 03:02:05,VALID,1007.25,VALID,0,VALID,104,VALID,0,VALID,23.1679,VALID,76,VALID,0.448828,
2011-04-23, 03:03:05,VALID,1007.28,VALID,0,VALID,104,VALID,0,VALID,23.1874,VALID,76,VALID,0.0988281,
2011-04-23, 03:04:05,VALID,1007.28,VALID,0,VALID,104,VALID,0,VALID,23.1857,VALID,76,VALID,0.0457031,
2011-04-23, 03:05:05,VALID,1007.24,VALID,0,VALID,104,VALID,0,VALID,23.2264,VALID,76,VALID,0,
2011-04-23, 03:06:05,VALID,1007.24,VALID,0,VALID,104,VALID,0,VALID,23.2264,VALID,76,VALID,0,
2011-04-23, 03:07:05,VALID,1007.25,VALID,0,VALID,104,VALID,0,VALID,23.2051,VALID,76,VALID,0.216797,
2011-04-23, 03:08:05,VALID,1007.21,VALID,0,VALID,104,VALID,0,VALID,23.1857,VALID,76,VALID,0.475,
2011-04-23, 03:09:05,VALID,1007.22,VALID,0,VALID,104,VALID,0,VALID,23.1662,VALID,76,VALID,0.377734,
2011-04-23, 03:10:05,VALID,1007.23,VALID,0,VALID,104,VALID,0,VALID,23.1874,VALID,76,VALID,0.454688,
2011-04-23, 03:11:05,VALID,1007.2,VALID,0,VALID,104,VALID,0,VALID,23.1874,VALID,76,VALID,0.431641,
2011-04-23, 03:12:05,VALID,1007.2,VALID,0,VALID,104,VALID,0,VALID,23.1874,VALID,76,VALID,0.334766,
2011-04-23, 03:13:05,VALID,1007.21,VALID,0,VALID,104,VALID,0,VALID,23.1679,VALID,76,VALID,0.501562,
2011-04-23, 03:14:05,VALID,1007.19,VALID,0,VALID,104,VALID,0,VALID,23.1679,VALID,76,VALID,0.391406,
2011-04-23, 03:15:05,VALID,1007.21,VALID,0,VALID,104,VALID,0.105969,VALID,23.1662,VALID,76,VALID,0.322656,
2011-04-23, 03:16:05,VALID,1007.22,VALID,0,VALID,104,VALID,0,VALID,23.1892,VALID,75,VALID,0.410156,
2011-04-23, 03:17:05,VALID,1007.23,VALID,0,VALID,104,VALID,0,VALID,23.1679,VALID,75,VALID,0,
2011-04-23, 03:18:05,VALID,1007.25,VALID,0,VALID,104,VALID,0,VALID,23.1467,VALID,75,VALID,0.760547,
2011-04-23, 03:19:05,VALID,1007.27,VALID,0,VALID,104,VALID,0,VALID,23.1485,VALID,76,VALID,0.671484,
2011-04-23, 03:20:05,VALID,1007.26,VALID,0,VALID,104,VALID,0.105969,VALID,23.1485,VALID,76,VALID,0.707422,
2011-04-23, 03:21:05,VALID,1007.26,VALID,0,VALID,104,VALID,0,VALID,23.129,VALID,76,VALID,0.300391,
2011-04-23, 03:22:05,VALID,1007.27,VALID,0,VALID,104,VALID,0,VALID,23.1095,VALID,76,VALID,0.359766,
2011-04-23, 03:23:04,VALID,1007.27,VALID,0,VALID,104,VALID,0,VALID,23.1095,VALID,76,VALID,0.419141,
2011-04-23, 03:24:04,VALID,1007.28,VALID,0,VALID,104,VALID,0,VALID,23.09,VALID,76,VALID,0.226172,
2011-04-23, 03:25:04,VALID,1007.29,VALID,0,VALID,104,VALID,0,VALID,23.09,VALID,76,VALID,0.496484,
2011-04-23, 03:26:04,VALID,1007.3,VALID,0,VALID,104,VALID,0,VALID,23.0705,VALID,76,VALID,0.0351563,
2011-04-23, 03:27:04,VALID,1007.27,VALID,0,VALID,104,VALID,0,VALID,23.0705,VALID,76,VALID,0.140234,
2011-04-23, 03:28:04,VALID,1007.28,VALID,0,VALID,104,VALID,0,VALID,23.0705,VALID,74,VALID,0.665234,
2011-04-23, 03:29:04,VALID,1007.3,VALID,0,VALID,104,VALID,0,VALID,23.0316,VALID,74,VALID,0.480859,
2011-04-23, 03:30:04,VALID,1007.33,VALID,0,VALID,104,VALID,0,VALID,22.9926,VALID,74,VALID,0.421484,
2011-04-23, 03:31:04,VALID,1007.34,VALID,0,VALID,104,VALID,0,VALID,22.9731,VALID,74,VALID,0.226172,
2011-04-23, 03:32:04,VALID,1007.36,VALID,0,VALID,104,VALID,0,VALID,22.9554,VALID,74,VALID,0.367188,
2011-04-23, 03:33:04,VALID,1007.39,VALID,0,VALID,104,VALID,0,VALID,22.9147,VALID,74,VALID,0,
2011-04-23, 03:34:04,VALID,1007.41,VALID,0,VALID,104,VALID,0,VALID,22.8952,VALID,74,VALID,0,
2011-04-23, 03:35:04,VALID,1007.4,VALID,0,VALID,104,VALID,0,VALID,22.8562,VALID,74,VALID,0.08125,
2011-04-23, 03:36:04,VALID,1007.39,VALID,0,VALID,104,VALID,0,VALID,22.8368,VALID,74,VALID,0,
2011-04-23, 03:37:04,VALID,1007.39,VALID,0,VALID,104,VALID,0,VALID,22.8173,VALID,74,VALID,0.26875,
2011-04-23, 03:38:04,VALID,1007.4,VALID,0,VALID,104,VALID,0,VALID,22.8173,VALID,74,VALID,0,
2011-04-23, 03:39:04,VALID,1007.42,VALID,0,VALID,104,VALID,0,VALID,22.7978,VALID,74,VALID,0,
2011-04-23, 03:40:04,VALID,1007.44,VALID,0,VALID,104,VALID,0,VALID,22.7978,VALID,74,VALID,0,
2011-04-23, 03:41:04,VALID,1007.43,VALID,0,VALID,104,VALID,0,VALID,22.7978,VALID,74,VALID,0,
2011-04-23, 03:42:04,VALID,1007.42,VALID,0,VALID,104,VALID,0,VALID,22.7978,VALID,74,VALID,0,
2011-04-23, 03:43:04,VALID,1007.41,VALID,0,VALID,104,VALID,0,VALID,22.7978,VALID,74,VALID,0,
2011-04-23, 03:44:04,VALID,1007.41,VALID,0,VALID,104,VALID,0,VALID,22.7978,VALID,74,VALID,0,
2011-04-23, 03:45:04,VALID,1007.42,VALID,0,VALID,104,VALID,0,VALID,22.7783,VALID,74,VALID,0,
2011-04-23, 03:46:04,VALID,1007.41,VALID,0,VALID,104,VALID,0,VALID,22.7783,VALID,74,VALID,0,
2011-04-23, 03:47:04,VALID,1007.42,VALID,0,VALID,104,VALID,0,VALID,22.7783,VALID,74,VALID,0,
2011-04-23, 03:48:04,VALID,1007.4,VALID,0,VALID,104,VALID,0,VALID,22.7783,VALID,74,VALID,0,
2011-04-23, 03:49:04,VALID,1007.4,VALID,0,VALID,104,VALID,0,VALID,22.7571,VALID,74,VALID,0,
2011-04-23, 03:50:04,VALID,1007.39,VALID,0,VALID,104,VALID,0,VALID,22.7783,VALID,74,VALID,0,
2011-04-23, 03:51:04,VALID,1007.42,VALID,0,VALID,104,VALID,0,VALID,22.7766,VALID,74,VALID,0,
2011-04-23, 03:52:04,VALID,1007.41,VALID,0,VALID,104,VALID,0,VALID,22.8368,VALID,74,VALID,0,
2011-04-23, 03:53:04,VALID,1007.43,VALID,0,VALID,104,VALID,0,VALID,22.8368,VALID,74,VALID,0.138281,
2011-04-23, 03:54:04,VALID,1007.46,VALID,0,VALID,104,VALID,0,VALID,22.8562,VALID,74,VALID,0,
2011-04-23, 03:55:04,VALID,1007.46,VALID,0,VALID,104,VALID,0.105969,VALID,22.8545,VALID,74,VALID,0,
2011-04-23, 03:56:04,VALID,1007.47,VALID,0,VALID,104,VALID,0.105969,VALID,22.8545,VALID,74,VALID,0,
2011-04-23, 03:57:04,VALID,1007.52,VALID,0,VALID,104,VALID,0.105969,VALID,22.835,VALID,74,VALID,0,
2011-04-23, 03:58:04,VALID,1007.52,VALID,0,VALID,104,VALID,0.105969,VALID,22.8545,VALID,74,VALID,0,
2011-04-23, 03:59:04,VALID,1007.51,VALID,0,VALID,104,VALID,0.105969,VALID,22.8545,VALID,74,VALID,0,
2011-04-23, 04:00:04,VALID,1007.52,VALID,0,VALID,104,VALID,0.105969,VALID,22.8545,VALID,74,VALID,0,
2011-04-23, 04:01:04,VALID,1007.55,VALID,0,VALID,104,VALID,0.105969,VALID,22.8545,VALID,74,VALID,0,
2011-04-23, 04:02:04,VALID,1007.54,VALID,0,VALID,104,VALID,0.105969,VALID,22.835,VALID,74,VALID,0,
2011-04-23, 04:03:04,VALID,1007.53,VALID,0,VALID,104,VALID,0.105969,VALID,22.8545,VALID,74,VALID,0,
2011-04-23, 04:04:04,VALID,1007.53,VALID,0,VALID,104,VALID,0.105969,VALID,22.8545,VALID,74,VALID,0,